Flag for U.S.A. Weather past 2 weeks in Sevierville, Tennessee, U.S.A.

Now
80 °F

Broken clouds.


Feels Like: 81 °F
Forecast: 64 / 84 °F
Wind: 9 mph from West

Location: McGhee Tyson Airport

Current Time: May 27, 2015 at 2:35:56 PM

Latest Report: May 27, 2015 at 1:53 PM


Visibility: 10 mi

Pressure: 30.19 "Hg

Humidity: 49%

Dew point: 59 °F

Location of SeviervilleLocation

Historic Weather in Sevierville — Graph

°F

Sevierville temperature yesterday

Maximum temperature yesterday: 88 °F (at 3:53 PM)
Minimum temperature yesterday: 64 °F (at 5:53 AM)
Average temperature yesterday: 74 °F

Past Weeks' High & Low Weather Summary

 TemperatureHumidityPressure
High88 °F (May 26, 3:53 PM)97% (May 19, 2:53 AM)30.39 "Hg (May 19, 2:53 AM)
Low48 °F (May 22, 4:53 AM)25% (May 13, 5:53 PM)29.81 "Hg (May 21, 3:53 AM)
Average70 °F64%30.15 "Hg
* Reported May 12 12:53 PM — May 27 12:53 PM, Sevierville, Weather by CustomWeather, © 2015

Note: Actual official high and low records may vary slightly from our data, if they occured in-between our weather recording intervals... More about our weather records

Advertising

Sevierville weather history for previous 24 hours

 ConditionsComfort  
Time TempWeatherWind HumidityBarometerVisibility
12:53 PM
Wed, May 27
78 °FBroken clouds.10 mph52%30.21 "Hg10 mi
11:53 AM77 °FBroken clouds.12 mph54%30.21 "Hg10 mi
9:53 AM73 °FBroken clouds.14 mph64%30.20 "Hg10 mi
8:53 AM70 °FPartly sunny.13 mph73%30.20 "Hg10 mi
7:53 AM67 °FPartly sunny.8 mph85%30.19 "Hg10 mi
6:53 AM66 °FOvercast.7 mph87%30.19 "Hg10 mi
5:53 AM65 °FPassing clouds.8 mph91%30.17 "Hg10 mi
4:53 AM66 °FPassing clouds.8 mph87%30.14 "Hg10 mi
3:53 AM67 °FPassing clouds.8 mph85%30.13 "Hg10 mi
2:53 AM67 °FPassing clouds.10 mph81%30.14 "Hg10 mi
1:53 AM67 °FClear.8 mph81%30.14 "Hg10 mi
12:53 AM69 °FClear.10 mph79%30.14 "Hg10 mi
11:53 PM
Tue, May 26
71 °FPassing clouds.8 mph71%30.14 "Hg10 mi
10:53 PM72 °FPartly cloudy.6 mph68%30.14 "Hg10 mi
9:53 PM73 °FMostly cloudy.7 mph66%30.12 "Hg10 mi
8:53 PM75 °FLight rain. Cloudy.15 mph62%30.10 "Hg10 mi
6:53 PM80 °FMore clouds than sun.14 mph54%30.04 "Hg10 mi
5:53 PM82 °FMore clouds than sun.16 mph51%30.06 "Hg10 mi
4:53 PM84 °FBroken clouds.13 mph48%30.07 "Hg10 mi
3:53 PM88 °FBroken clouds.15 mph40%30.06 "Hg10 mi
2:53 PM87 °FBroken clouds.16 mph43%30.08 "Hg10 mi
Weather by CustomWeather, © 2015

See weather overviewHow to use our weather pages